• In Portugal
  • List of Countries
  • For 7 days
  • Water Temperature
  • Satellite Maps
  • Weather Map
  • Weather Widgets
  • user-avatar
    Login

    Hourly Weather Abovyan

    Today, 18 July, Wednesday

    Time Temperature Precipitation Wind Pressure Humidity
    00:00 +19°C° 0 mm 2 mps 668 mmHg 73%
    01:00 +18°C° 0 mm 2 mps 668 mmHg 72%
    02:00 +18°C° 0 mm 2 mps 668 mmHg 72%
    03:00 +19°C° 0 mm 1 mps 667 mmHg 73%
    04:00 +20°C° 0 mm 1 mps 667 mmHg 71%
    05:00 +20°C° 0 mm 1 mps 667 mmHg 69%
    06:00 +21°C° 0 mm 1 mps 668 mmHg 67%
    07:00 +23°C° 0 mm 1 mps 668 mmHg 60%
    08:00 +25°C° 0 mm 1 mps 668 mmHg 52%
    09:00 +27°C° 0 mm 2 mps 668 mmHg 45%
    10:00 +28°C° 0 mm 2 mps 668 mmHg 42%
    11:00 +30°C° 0 mm 2 mps 668 mmHg 38%
    12:00 +31°C° 0 mm 2 mps 668 mmHg 35%
    13:00 +32°C° 0.1 mm 2 mps 668 mmHg 34%
    14:00 +33°C° 0.1 mm 3 mps 667 mmHg 33%
    15:00 +34°C° 0.1 mm 3 mps 667 mmHg 32%
    16:00 +33°C° 0.3 mm 3 mps 667 mmHg 36%
    17:00 +31°C° 0.3 mm 2 mps 667 mmHg 39%
    18:00 +31°C° 0.3 mm 2 mps 666 mmHg 42%
    19:00 +29°C° 0.2 mm 2 mps 666 mmHg 49%
    20:00 +26°C° 0.2 mm 3 mps 666 mmHg 56%
    21:00 +24°C° 0.2 mm 3 mps 666 mmHg 63%
    22:00 +24°C° 0.1 mm 3 mps 666 mmHg 65%
    23:00 +22°C° 0.1 mm 3 mps 666 mmHg 67%

    Tomorrow, 19 July, Thursday

    Time Temperature Precipitation Wind Pressure Humidity
    00:00 +22°C° 0.1 mm 3 mps 666 mmHg 69%
    01:00 +21°C° 0 mm 2 mps 666 mmHg 70%
    02:00 +21°C° 0 mm 2 mps 666 mmHg 70%
    03:00 +20°C° 0 mm 2 mps 666 mmHg 71%
    04:00 +21°C° 0 mm 2 mps 666 mmHg 70%
    05:00 +21°C° 0 mm 2 mps 666 mmHg 68%
    06:00 +23°C° 0 mm 1 mps 667 mmHg 66%
    07:00 +25°C° 0 mm 2 mps 667 mmHg 57%
    08:00 +27°C° 0 mm 2 mps 667 mmHg 48%
    09:00 +30°C° 0 mm 2 mps 667 mmHg 39%
    10:00 +31°C° 0 mm 2 mps 667 mmHg 35%
    11:00 +33°C° 0 mm 3 mps 668 mmHg 30%
    12:00 +35°C° 0 mm 3 mps 668 mmHg 25%
    13:00 +35°C° 0 mm 3 mps 667 mmHg 24%
    14:00 +36°C° 0 mm 3 mps 667 mmHg 23%
    15:00 +36°C° 0 mm 4 mps 667 mmHg 22%
    16:00 +35°C° 0 mm 3 mps 667 mmHg 26%
    17:00 +35°C° 0 mm 2 mps 667 mmHg 29%
    18:00 +34°C° 0 mm 2 mps 667 mmHg 33%
    19:00 +30°C° 0.1 mm 2 mps 667 mmHg 41%
    20:00 +28°C° 0.1 mm 3 mps 667 mmHg 50%
    21:00 +25°C° 0.1 mm 3 mps 667 mmHg 58%
    22:00 +24°C° 0 mm 3 mps 667 mmHg 61%
    23:00 +24°C° 0 mm 3 mps 667 mmHg 64%

    Day after tomorrow, 20 July, Friday

    Time Temperature Precipitation Wind Pressure Humidity
    00:00 +23°C° 0 mm 2 mps 667 mmHg 68%
    01:00 +23°C° 0 mm 2 mps 666 mmHg 68%
    02:00 +21°C° 0 mm 2 mps 666 mmHg 67%
    03:00 +21°C° 0 mm 2 mps 666 mmHg 67%
    04:00 +21°C° 0 mm 2 mps 666 mmHg 65%
    05:00 +23°C° 0 mm 2 mps 666 mmHg 63%
    06:00 +23°C° 0 mm 1 mps 666 mmHg 61%
    07:00 +26°C° 0 mm 2 mps 667 mmHg 51%
    08:00 +28°C° 0 mm 2 mps 667 mmHg 42%
    09:00 +31°C° 0 mm 2 mps 667 mmHg 32%
    10:00 +32°C° 0 mm 2 mps 667 mmHg 29%
    11:00 +34°C° 0 mm 2 mps 667 mmHg 25%
    12:00 +36°C° 0 mm 3 mps 667 mmHg 22%
    13:00 +36°C° 0 mm 3 mps 667 mmHg 21%
    14:00 +36°C° 0 mm 3 mps 667 mmHg 20%
    15:00 +37°C° 0 mm 3 mps 666 mmHg 20%
    16:00 +36°C° 0.2 mm 3 mps 666 mmHg 23%
    17:00 +35°C° 0.2 mm 3 mps 666 mmHg 26%
    18:00 +34°C° 0.2 mm 3 mps 666 mmHg 29%
    19:00 +30°C° 0.1 mm 3 mps 666 mmHg 37%
    20:00 +28°C° 0.1 mm 3 mps 666 mmHg 46%
    21:00 +25°C° 0.1 mm 3 mps 666 mmHg 54%
    22:00 +25°C° 0 mm 3 mps 666 mmHg 57%
    23:00 +24°C° 0 mm 3 mps 666 mmHg 59%

    21 July, Saturday

    Time Temperature Precipitation Wind Pressure Humidity
    00:00 +22°C° 0 mm 3 mps 666 mmHg 61%
    01:00 +22°C° 0 mm 3 mps 666 mmHg 62%
    02:00 +21°C° 0 mm 3 mps 666 mmHg 63%
    03:00 +21°C° 0 mm 3 mps 666 mmHg 64%
    04:00 +21°C° 0 mm 2 mps 667 mmHg 64%
    05:00 +21°C° 0 mm 2 mps 667 mmHg 63%
    06:00 +21°C° 0 mm 2 mps 667 mmHg 62%
    07:00 +25°C° 0 mm 2 mps 667 mmHg 56%
    08:00 +27°C° 0 mm 2 mps 668 mmHg 50%
    09:00 +29°C° 0 mm 2 mps 668 mmHg 44%
    10:00 +30°C° 0 mm 2 mps 668 mmHg 39%
    11:00 +31°C° 0 mm 2 mps 668 mmHg 35%
    12:00 +34°C° 0 mm 2 mps 668 mmHg 31%
    13:00 +34°C° 0.1 mm 2 mps 668 mmHg 29%
    14:00 +35°C° 0.1 mm 2 mps 667 mmHg 28%
    15:00 +35°C° 0.1 mm 2 mps 667 mmHg 27%
    16:00 +34°C° 0.1 mm 3 mps 667 mmHg 31%
    17:00 +33°C° 0.1 mm 3 mps 667 mmHg 36%
    18:00 +32°C° 0.1 mm 4 mps 667 mmHg 40%
    19:00 +29°C° 0.2 mm 4 mps 667 mmHg 47%
    20:00 +27°C° 0.2 mm 3 mps 667 mmHg 55%
    21:00 +25°C° 0.2 mm 3 mps 667 mmHg 62%
    22:00 +24°C° 0.2 mm 3 mps 668 mmHg 65%
    23:00 +22°C° 0.2 mm 3 mps 668 mmHg 67%

    22 July, Sunday

    Time Temperature Precipitation Wind Pressure Humidity
    00:00 +22°C° 0.2 mm 3 mps 668 mmHg 70%
    01:00 +21°C° 0.2 mm 3 mps 667 mmHg 72%
    02:00 +21°C° 0.2 mm 2 mps 667 mmHg 74%
    03:00 +20°C° 0.2 mm 2 mps 667 mmHg 76%
    04:00 +20°C° 0.1 mm 2 mps 667 mmHg 75%
    05:00 +21°C° 0.1 mm 2 mps 668 mmHg 74%
    06:00 +21°C° 0.1 mm 2 mps 668 mmHg 73%
    07:00 +24°C° 0 mm 2 mps 668 mmHg 65%
    08:00 +26°C° 0 mm 2 mps 668 mmHg 58%
    09:00 +28°C° 0 mm 2 mps 668 mmHg 50%
    10:00 +30°C° 0.1 mm 2 mps 668 mmHg 45%
    11:00 +31°C° 0.1 mm 2 mps 668 mmHg 40%
    12:00 +32°C° 0.1 mm 2 mps 668 mmHg 34%
    13:00 +34°C° 0.1 mm 2 mps 668 mmHg 33%
    14:00 +34°C° 0.1 mm 3 mps 667 mmHg 32%
    15:00 +34°C° 0.1 mm 3 mps 667 mmHg 31%
    16:00 +34°C° 0.5 mm 3 mps 667 mmHg 35%
    17:00 +33°C° 0.5 mm 3 mps 667 mmHg 39%
    18:00 +31°C° 0.5 mm 3 mps 667 mmHg 43%
    19:00 +29°C° 0.3 mm 3 mps 667 mmHg 49%
    20:00 +27°C° 0.3 mm 3 mps 667 mmHg 55%
    21:00 +25°C° 0.3 mm 3 mps 667 mmHg 62%
    22:00 +24°C° 0.1 mm 3 mps 667 mmHg 64%
    23:00 +24°C° 0.1 mm 3 mps 667 mmHg 66%

    23 July, Monday

    Time Temperature Precipitation Wind Pressure Humidity
    00:00 +22°C° 0.1 mm 3 mps 667 mmHg 68%
    01:00 +23°C° 0.2 mm 2 mps 667 mmHg 70%
    02:00 +21°C° 0.2 mm 2 mps 667 mmHg 72%
    03:00 +21°C° 0.2 mm 2 mps 667 mmHg 74%
    04:00 +21°C° 0 mm 2 mps 667 mmHg 72%
    05:00 +21°C° 0 mm 2 mps 667 mmHg 71%
    06:00 +23°C° 0 mm 2 mps 667 mmHg 70%
    07:00 +25°C° 0 mm 2 mps 668 mmHg 62%
    08:00 +27°C° 0 mm 2 mps 668 mmHg 54%
    09:00 +29°C° 0 mm 2 mps 668 mmHg 46%
    10:00 +30°C° 0 mm 2 mps 668 mmHg 41%
    11:00 +32°C° 0 mm 2 mps 667 mmHg 37%
    12:00 +34°C° 0 mm 2 mps 667 mmHg 32%
    13:00 +35°C° 0.1 mm 2 mps 667 mmHg 31%
    14:00 +35°C° 0.1 mm 3 mps 667 mmHg 30%
    15:00 +36°C° 0.1 mm 3 mps 667 mmHg 29%
    16:00 +35°C° 0.1 mm 3 mps 667 mmHg 32%
    17:00 +34°C° 0.1 mm 3 mps 666 mmHg 35%
    18:00 +33°C° 0.1 mm 3 mps 666 mmHg 38%
    19:00 +30°C° 0.1 mm 3 mps 667 mmHg 45%
    20:00 +28°C° 0.1 mm 3 mps 667 mmHg 52%
    21:00 +26°C° 0.1 mm 3 mps 667 mmHg 59%
    22:00 +25°C° 0 mm 3 mps 667 mmHg 60%
    23:00 +25°C° 0 mm 2 mps 667 mmHg 61%
    Show more